CW4114 Weather Reports


Display with metric or nautical units.
time (UTC)temp
F
wind
direction
speed
MPH
gust
MPH
rain 1hr
in
rain 24hr
in
rain mn
in
humidity
%
barometer
mb
20180719125908 67 259 3.0 6.0 0.00 0.00 0.00 65 1017.6
20180719125403 67 257 2.0 6.0 0.00 0.00 0.00 66 1017.6
20180719124903 67 298 3.0 5.0 0.00 0.00 0.00 67 1017.6
20180719124406 66 300 1.0 6.0 0.00 0.00 0.00 68 1017.5
20180719123903 66 286 1.0 6.0 0.00 0.00 0.00 69 1017.5
20180719123404 65 331 1.0 3.0 0.00 0.00 0.00 71 1017.5
20180719122901 65 247 1.0 3.0 0.00 0.00 0.00 73 1017.4
20180719122403 64 271 1.0 3.0 0.00 0.00 0.00 74 1017.4
20180719121910 64 299 1.0 4.0 0.00 0.00 0.00 76 1017.4
20180719121401 63 265 1.0 4.0 0.00 0.00 0.00 79 1017.2
20180719120902 62 275 1.0 4.0 0.00 0.00 0.00 81 1017.3
20180719120404 62 257 2.0 4.0 0.00 0.00 0.00 82 1017.4
20180719115902 61 261 2.0 4.0 0.00 0.00 0.00 83 1017.4
20180719115402 61 271 1.0 4.0 0.00 0.00 0.00 84 1017.4
20180719114926 60 267 0.0 3.0 0.00 0.00 0.00 86 1017.3
20180719114902 60 281 1.0 4.0 0.00 0.00 0.00 85 1017.4
20180719114420 60 267 0.0 3.0 0.00 0.00 0.00 86 1017.3
20180719114401 60 262 1.0 3.0 0.00 0.00 0.00 86 1017.3
20180719113912 60 267 0.0 3.0 0.00 0.00 0.00 86 1017.3
20180719113401 59 265 0.0 2.0 0.00 0.00 0.00 87 1017.4
20180719112903 59 258 0.0 2.0 0.00 0.00 0.00 88 1017.4
20180719112402 58 265 1.0 3.0 0.00 0.00 0.00 89 1017.3
20180719111902 58 269 1.0 3.0 0.00 0.00 0.00 89 1017.4
20180719111400 57 265 0.0 1.0 0.00 0.00 0.00 90 1017.5
20180719110901 57 290 0.0 1.0 0.00 0.00 0.00 90 1017.5
20180719110408 57 224 0.0 0.0 0.00 0.00 0.00 91 1017.6
20180719105903 56 221 0.0 1.0 0.00 0.00 0.00 92 1017.6
20180719105400 56 231 0.0 3.0 0.00 0.00 0.00 92 1017.5
20180719104904 55 257 1.0 3.0 0.00 0.00 0.00 92 1017.6
20180719104400 55 265 1.0 2.0 0.00 0.00 0.00 92 1017.6
20180719103900 55 261 1.0 2.0 0.00 0.00 0.00 92 1017.7
20180719103400 55 268 0.0 3.0 0.00 0.00 0.00 92 1017.7
20180719102900 55 288 0.0 5.0 0.00 0.00 0.00 92 1017.7
20180719102359 55 298 3.0 5.0 0.00 0.00 0.00 91 1017.6
20180719101901 55 262 3.0 5.0 0.00 0.00 0.00 91 1017.5
20180719101402 55 252 3.0 6.0 0.00 0.00 0.00 91 1017.5
20180719100901 56 237 3.0 7.0 0.00 0.00 0.00 90 1017.5
20180719100400 56 268 3.0 7.0 0.00 0.00 0.00 90 1017.5
20180719095859 56 267 3.0 5.0 0.00 0.00 0.00 90 1017.5
20180719095400 56 259 3.0 5.0 0.00 0.00 0.00 89 1017.4
20180719094859 57 255 4.0 5.0 0.00 0.00 0.00 89 1017.4
20180719094358 57 247 3.0 6.0 0.00 0.00 0.00 89 1017.3
20180719093905 57 255 3.0 7.0 0.00 0.00 0.00 89 1017.2
20180719093401 57 241 4.0 7.0 0.00 0.00 0.00 89 1017.1
20180719092858 57 213 4.0 9.0 0.00 0.00 0.00 89 1017.0
20180719092357 57 261 4.0 9.0 0.00 0.00 0.00 89 1017.0
20180719091859 58 258 4.0 7.0 0.00 0.00 0.00 88 1016.9
20180719091404 58 261 3.0 5.0 0.00 0.00 0.00 88 1016.9
20180719090858 58 259 3.0 5.0 0.00 0.00 0.00 88 1016.8
20180719090357 58 226 1.0 4.0 0.00 0.00 0.00 87 1016.8
20180719085904 58 175 3.0 5.0 0.00 0.00 0.00 87 1016.9
20180719085402 58 195 2.0 5.0 0.00 0.00 0.00 86 1016.9
20180719084856 58 193 2.0 4.0 0.00 0.00 0.00 86 1016.9
20180719084358 59 181 2.0 5.0 0.00 0.00 0.00 85 1016.9
20180719083856 59 212 2.0 6.0 0.00 0.00 0.00 85 1016.8
20180719083356 59 199 1.0 6.0 0.00 0.00 0.00 85 1016.8
20180719082856 59 219 1.0 5.0 0.00 0.00 0.00 85 1016.7
20180719082356 59 226 2.0 3.0 0.00 0.00 0.00 84 1016.7
20180719081902 60 173 1.0 4.0 0.00 0.00 0.00 83 1016.8
20180719081357 60 162 1.0 4.0 0.00 0.00 0.00 83 1016.6
20180719080857 60 197 2.0 6.0 0.00 0.00 0.00 83 1016.6
20180719075856 60 189 5.0 9.0 0.00 0.00 0.00 84 1016.7
20180719075355 60 247 3.0 7.0 0.00 0.00 0.00 83 1016.6
20180719074855 60 209 4.0 7.0 0.00 0.00 0.00 84 1016.5
20180719074354 59 216 4.0 7.0 0.00 0.00 0.00 85 1016.6
20180719073900 59 195 3.0 6.0 0.00 0.00 0.00 85 1016.6
20180719073354 59 178 2.0 6.0 0.00 0.00 0.00 85 1016.6
20180719072854 58 230 3.0 6.0 0.00 0.00 0.00 85 1016.7
20180719072354 58 252 3.0 6.0 0.00 0.00 0.00 85 1016.7
20180719071853 58 207 3.0 7.0 0.00 0.00 0.00 85 1016.8
20180719071354 58 228 4.0 7.0 0.00 0.00 0.00 84 1016.8
20180719070854 58 247 3.0 9.0 0.00 0.00 0.00 85 1016.8
20180719070354 58 257 4.0 9.0 0.00 0.00 0.00 85 1016.9
20180719065853 58 214 4.0 6.0 0.00 0.00 0.00 85 1017.0
20180719065401 58 259 3.0 6.0 0.00 0.00 0.00 85 1017.1
20180719064857 58 241 3.0 4.0 0.00 0.00 0.00 85 1017.2
20180719064353 58 245 3.0 4.0 0.00 0.00 0.00 84 1017.3
20180719063852 58 209 3.0 4.0 0.00 0.00 0.00 83 1017.4
20180719063352 58 214 2.0 3.0 0.00 0.00 0.00 83 1017.4
20180719062853 58 210 1.0 4.0 0.00 0.00 0.00 82 1017.4
20180719062352 58 216 2.0 4.0 0.00 0.00 0.00 81 1017.5
20180719061852 58 228 2.0 4.0 0.00 0.00 0.00 81 1017.5
20180719061350 59 226 2.0 4.0 0.00 0.00 0.00 80 1017.4
20180719060858 59 219 2.0 5.0 0.00 0.00 0.00 80 1017.4
20180719060350 59 248 2.0 5.0 0.00 0.00 0.00 79 1017.3
20180719055852 60 268 3.0 5.0 0.00 0.00 0.00 78 1017.3
20180719055348 60 230 2.0 5.0 0.00 0.00 0.00 78 1017.2
20180719054848 60 231 2.0 6.0 0.00 0.00 0.00 78 1017.3
20180719054348 60 234 3.0 6.0 0.00 0.00 0.00 78 1017.2
20180719053850 60 207 3.0 7.0 0.00 0.00 0.00 78 1017.2
20180719053349 60 247 3.0 7.0 0.00 0.00 0.00 77 1017.2
20180719052848 61 214 3.0 7.0 0.00 0.00 0.00 77 1017.2
20180719052352 61 226 3.0 7.0 0.00 0.00 0.00 78 1017.2
20180719051847 61 262 4.0 6.0 0.00 0.00 0.00 78 1017.4
20180719051347 61 220 2.0 6.0 0.00 0.00 0.00 77 1017.4
20180719050847 61 216 3.0 6.0 0.00 0.00 0.00 77 1017.4
20180719050347 61 212 3.0 6.0 0.00 0.00 0.00 76 1017.3
20180719045845 61 238 2.0 7.0 0.00 0.00 0.00 75 1017.4
20180719045345 61 223 2.0 7.0 0.00 0.00 0.00 75 1017.5
20180719044846 61 207 2.0 6.0 0.00 0.00 0.00 75 1017.4
20180719044349 61 257 3.0 5.0 0.00 0.00 0.00 75 1017.4
20180719043843 61 182 2.0 6.0 0.00 0.00 0.00 75 1017.4
20180719043352 61 185 3.0 7.0 0.00 0.00 0.00 75 1017.4
20180719042843 62 202 3.0 7.0 0.00 0.00 0.00 76 1017.3
20180719042341 62 230 3.0 7.0 0.00 0.00 0.00 76 1017.3
20180719041841 62 207 4.0 9.0 0.00 0.00 0.00 76 1017.3
20180719041341 62 257 5.0 9.0 0.00 0.00 0.00 76 1017.4
20180719040841 62 240 4.0 7.0 0.00 0.00 0.00 75 1017.2
20180719040340 62 262 3.0 7.0 0.00 0.00 0.00 74 1017.2
20180719035841 62 234 3.0 6.0 0.00 0.00 0.00 74 1017.2
20180719035349 62 254 3.0 6.0 0.00 0.00 0.00 74 1017.1
20180719034844 62 272 3.0 5.0 0.00 0.00 0.00 74 1017.2
20180719034338 62 258 3.0 5.0 0.00 0.00 0.00 74 1017.2
20180719033838 63 212 2.0 5.0 0.00 0.00 0.00 74 1017.3
20180719033338 63 219 3.0 6.0 0.00 0.00 0.00 74 1017.3
20180719032838 63 216 3.0 6.0 0.00 0.00 0.00 73 1017.4
20180719032337 63 268 4.0 7.0 0.00 0.00 0.00 73 1017.4
20180719031837 63 254 4.0 7.0 0.00 0.00 0.00 73 1017.4
20180719031337 63 264 3.0 6.0 0.00 0.00 0.00 73 1017.3
20180719030840 63 223 3.0 7.0 0.00 0.00 0.00 73 1017.4
20180719030334 63 217 4.0 7.0 0.00 0.00 0.00 72 1017.4
20180719025831 64 240 2.0 7.0 0.00 0.00 0.00 72 1017.4
20180719025332 64 231 2.0 7.0 0.00 0.00 0.00 72 1017.5
20180719024831 64 227 2.0 7.0 0.00 0.00 0.00 72 1017.5
20180719024334 64 202 2.0 6.0 0.00 0.00 0.00 71 1017.4
20180719023832 64 197 2.0 6.0 0.00 0.00 0.00 71 1017.4
20180719023332 64 203 3.0 7.0 0.00 0.00 0.00 71 1017.3
20180719022837 64 223 2.0 7.0 0.00 0.00 0.00 72 1017.4
20180719022333 65 195 3.0 5.0 0.00 0.00 0.00 72 1017.4
20180719021835 65 195 2.0 5.0 0.00 0.00 0.00 72 1017.3
20180719021332 65 214 1.0 5.0 0.00 0.00 0.00 72 1017.2
20180719020832 65 203 2.0 4.0 0.00 0.00 0.00 72 1017.3
20180719020332 65 200 2.0 4.0 0.00 0.00 0.00 72 1017.2
20180719015833 65 213 1.0 4.0 0.00 0.00 0.00 71 1017.1
20180719015332 66 190 0.0 4.0 0.00 0.00 0.00 70 1017.1
20180719014831 66 213 1.0 4.0 0.00 0.00 0.00 68 1017.0
20180719014336 66 247 2.0 4.0 0.00 0.00 0.00 67 1017.0
20180719013831 67 213 1.0 4.0 0.00 0.00 0.00 66 1017.0
20180719013329 67 200 2.0 6.0 0.00 0.00 0.00 65 1017.0
20180719012830 67 192 2.0 7.0 0.00 0.00 0.00 64 1017.1
20180719012327 67 213 1.0 7.0 0.00 0.00 0.00 63 1017.0
20180719011826 67 224 2.0 6.0 0.00 0.00 0.00 53 1017.0
20180719011327 68 236 0.0 1.0 0.00 0.00 0.00 52 1017.0
20180719010826 68 240 0.0 2.0 0.00 0.00 0.00 51 1017.0
20180719010326 69 240 1.0 2.0 0.00 0.00 0.00 50 1017.0
20180719005831 69 241 1.0 2.0 0.00 0.00 0.00 50 1017.0
20180719005326 69 243 1.0 2.0 0.00 0.00 0.00 48 1017.0
20180719004822 69 179 0.0 1.0 0.00 0.00 0.00 47 1017.0
20180719004323 69 140 0.0 1.0 0.00 0.00 0.00 46 1016.9
20180719003822 69 140 0.0 3.0 0.00 0.00 0.00 46 1017.0
20180719003320 69 138 2.0 3.0 0.00 0.00 0.00 46 1016.9
20180719002821 70 89 0.0 2.0 0.00 0.00 0.00 46 1017.0
20180719002320 70 87 1.0 3.0 0.00 0.00 0.00 46 1017.0
20180719001820 70 86 2.0 4.0 0.00 0.00 0.00 47 1017.0
20180719001330 70 100 2.0 4.0 0.00 0.00 0.00 49 1017.0
20180719000819 70 80 2.0 4.0 0.00 0.00 0.00 48 1017.0
20180719000320 70 104 2.0 5.0 0.00 0.00 0.00 49 1017.0
20180718235818 70 80 2.0 5.0 0.00 0.00 0.00 50 1017.0
20180718235316 70 73 2.0 5.0 0.00 0.00 0.00 49 1017.0
20180718234814 70 107 2.0 5.0 0.00 0.00 0.00 50 1017.0
20180718234313 70 97 2.0 5.0 0.00 0.00 0.00 47 1017.1
20180718233814 71 51 4.0 6.0 0.00 0.00 0.00 46 1017.1
20180718233314 71 104 3.0 6.0 0.00 0.00 0.00 45 1017.2
20180718232814 71 68 3.0 5.0 0.00 0.00 0.00 47 1017.2
20180718232317 71 116 2.0 5.0 0.00 0.00 0.00 46 1017.2
20180718231812 71 100 2.0 5.0 0.00 0.00 0.00 46 1017.2
20180718231311 72 96 3.0 5.0 0.00 0.00 0.00 49 1017.2
20180718230810 72 114 3.0 6.0 0.00 0.00 0.00 45 1017.2
20180718230309 72 113 2.0 6.0 0.00 0.00 0.00 44 1017.2
20180718225810 72 79 3.0 6.0 0.00 0.00 0.00 48 1017.2
20180718225307 72 79 2.0 5.0 0.00 0.00 0.00 44 1017.3
20180718224806 72 71 3.0 6.0 0.00 0.00 0.00 47 1017.3
20180718224306 72 69 3.0 9.0 0.00 0.00 0.00 48 1017.3
20180718223804 73 65 5.0 7.0 0.00 0.00 0.00 50 1017.4
20180718223310 73 66 5.0 7.0 0.00 0.00 0.00 51 1017.4
20180718222804 73 75 2.0 7.0 0.00 0.00 0.00 46 1017.4
20180718222305 73 51 2.0 6.0 0.00 0.00 0.00 45 1017.4
20180718221805 73 96 4.0 9.0 0.00 0.00 0.00 44 1017.4
20180718221304 73 76 4.0 9.0 0.00 0.00 0.00 46 1017.5
20180718220809 73 89 4.0 7.0 0.00 0.00 0.00 45 1017.6
20180718220303 72 110 4.0 7.0 0.00 0.00 0.00 49 1017.5
20180718215803 72 96 4.0 9.0 0.00 0.00 0.00 49 1017.5
20180718215308 72 95 4.0 9.0 0.00 0.00 0.00 53 1017.5
20180718214807 72 96 4.0 7.0 0.00 0.00 0.00 50 1017.5
20180718214303 71 71 5.0 7.0 0.00 0.00 0.00 54 1017.6
20180718213803 71 63 4.0 10.0 0.00 0.00 0.00 57 1017.6
20180718213303 71 54 6.0 9.0 0.00 0.00 0.00 59 1017.7
20180718212803 71 127 4.0 10.0 0.00 0.00 0.00 60 1017.8
20180718212305 71 96 6.0 10.0 0.00 0.00 0.00 59 1017.7
20180718211809 71 79 5.0 10.0 0.00 0.00 0.00 61 1017.8
20180718211303 71 100 6.0 10.0 0.00 0.00 0.00 60 1017.8
20180718210802 71 45 6.0 9.0 0.00 0.00 0.00 57 1017.9
20180718210302 72 55 4.0 9.0 0.00 0.00 0.00 58 1018.0
20180718205801 71 32 5.0 9.0 0.00 0.00 0.00 59 1018.1
20180718205302 71 71 5.0 7.0 0.00 0.00 0.00 57 1018.1
20180718204802 71 72 5.0 9.0 0.00 0.00 0.00 57 1018.1
20180718204307 71 71 4.0 9.0 0.00 0.00 0.00 57 1018.2
20180718203801 72 62 5.0 7.0 0.00 0.00 0.00 56 1018.3
20180718203259 72 85 4.0 9.0 0.00 0.00 0.00 56 1018.3
20180718202757 72 65 5.0 9.0 0.00 0.00 0.00 58 1018.4
20180718202258 72 76 4.0 9.0 0.00 0.00 0.00 57 1018.3
20180718201758 73 85 4.0 9.0 0.00 0.00 0.00 55 1018.3
20180718201301 71 75 5.0 10.0 0.00 0.00 0.00 60 1018.4
20180718200758 72 65 7.0 10.0 0.00 0.00 0.00 57 1018.5
20180718200305 71 85 6.0 10.0 0.00 0.00 0.00 61 1018.6
20180718195757 70 12 2.0 9.0 0.00 0.00 0.00 60 1018.7
20180718195255 72 73 4.0 9.0 0.00 0.00 0.00 58 1018.6
20180718194754 71 80 4.0 9.0 0.00 0.00 0.00 60 1018.5
20180718194254 71 71 5.0 9.0 0.00 0.00 0.00 61 1018.6
20180718193754 70 4 3.0 6.0 0.00 0.00 0.00 61 1018.6
20180718193253 70 45 2.0 7.0 0.00 0.00 0.00 61 1018.6
20180718192753 70 41 4.0 9.0 0.00 0.00 0.00 60 1018.6
20180718192252 70 47 3.0 9.0 0.00 0.00 0.00 59 1018.7
20180718191758 70 56 2.0 7.0 0.00 0.00 0.00 60 1018.7
20180718191253 70 27 1.0 10.0 0.00 0.00 0.00 61 1018.7
20180718190754 70 34 4.0 10.0 0.00 0.00 0.00 62 1018.7
20180718190254 69 12 3.0 10.0 0.00 0.00 0.00 61 1018.8
20180718185751 70 75 2.0 10.0 0.00 0.00 0.00 59 1018.8
20180718185249 70 27 2.0 9.0 0.00 0.00 0.00 61 1018.9
20180718184749 70 21 3.0 10.0 0.00 0.00 0.00 60 1019.0
20180718184249 70 2 5.0 10.0 0.00 0.00 0.00 59 1019.0
20180718183749 69 351 2.0 9.0 0.00 0.00 0.00 62 1019.1
20180718183256 70 271 3.0 9.0 0.00 0.00 0.00 61 1019.0
20180718182749 71 63 3.0 11.0 0.00 0.00 0.00 62 1018.9
20180718182249 70 30 5.0 11.0 0.00 0.00 0.00 60 1019.0
20180718181748 70 48 3.0 10.0 0.00 0.00 0.00 60 1018.8
20180718181248 70 21 4.0 10.0 0.00 0.00 0.00 63 1018.9
20180718180748 69 28 4.0 9.0 0.00 0.00 0.00 62 1018.9
20180718180247 69 282 2.0 10.0 0.00 0.00 0.00 63 1018.9
20180718175748 69 1 4.0 13.0 0.00 0.00 0.00 64 1018.9
20180718175246 69 25 4.0 13.0 0.00 0.00 0.00 66 1018.9
20180718174752 69 351 3.0 11.0 0.00 0.00 0.00 65 1019.0
20180718174246 69 38 4.0 11.0 0.00 0.00 0.00 65 1019.0
20180718173743 69 24 2.0 11.0 0.00 0.00 0.00 68 1019.0
20180718173242 69 34 4.0 11.0 0.00 0.00 0.00 69 1019.1
20180718172742 69 31 5.0 10.0 0.00 0.00 0.00 72 1019.2
20180718172240 69 37 5.0 11.0 0.00 0.00 0.00 73 1019.3
20180718171740 68 32 5.0 10.0 0.00 0.00 0.00 74 1019.4
20180718171240 68 345 3.0 10.0 0.00 0.00 0.00 74 1019.5
20180718170738 67 56 5.0 10.0 0.00 0.00 0.00 76 1019.4
20180718170244 67 341 4.0 9.0 0.00 0.00 0.00 76 1019.5
20180718165738 68 73 2.0 9.0 0.00 0.00 0.00 77 1019.6
20180718165238 67 49 3.0 9.0 0.00 0.00 0.00 78 1019.5
20180718164737 68 87 4.0 10.0 0.00 0.00 0.00 74 1019.6
20180718164237 68 337 3.0 10.0 0.00 0.00 0.00 76 1019.5
20180718163733 67 49 4.0 10.0 0.00 0.00 0.00 76 1019.6
20180718163232 67 55 3.0 11.0 0.00 0.00 0.00 76 1019.7
20180718162733 67 333 4.0 11.0 0.00 0.00 0.00 74 1019.7
20180718162231 67 353 4.0 9.0 0.00 0.00 0.00 76 1019.8
20180718161737 67 24 3.0 10.0 0.00 0.00 0.00 77 1019.8
20180718161231 67 34 4.0 11.0 0.00 0.00 0.00 76 1019.8
20180718160730 67 19 4.0 11.0 0.00 0.00 0.00 74 1019.8
20180718160230 68 28 1.0 10.0 0.00 0.00 0.00 74 1019.9
20180718155732 67 52 2.0 10.0 0.00 0.00 0.00 76 1020.0
20180718155231 66 27 3.0 7.0 0.00 0.00 0.00 77 1020.0
20180718154730 67 351 3.0 12.0 0.00 0.00 0.00 76 1020.0
20180718154234 66 35 2.0 12.0 0.00 0.00 0.00 77 1019.9
20180718153725 66 21 4.0 7.0 0.00 0.00 0.00 76 1020.0
20180718153236 66 15 2.0 7.0 0.00 0.00 0.00 77 1020.0
20180718152726 66 42 2.0 9.0 0.00 0.00 0.00 76 1020.0
20180718152224 67 250 2.0 9.0 0.00 0.00 0.00 76 1020.0
20180718151722 67 27 2.0 9.0 0.00 0.00 0.00 78 1020.1
20180718151224 67 344 1.0 9.0 0.00 0.00 0.00 77 1020.3
20180718150723 66 7 4.0 9.0 0.00 0.00 0.00 79 1020.2
20180718150223 66 27 2.0 9.0 0.00 0.00 0.00 78 1020.2
20180718145723 67 40 2.0 9.0 0.00 0.00 0.00 78 1020.2
20180718145222 67 37 4.0 9.0 0.00 0.00 0.00 75 1020.1
20180718144725 67 32 3.0 10.0 0.00 0.00 0.00 76 1020.1
20180718144223 67 337 3.0 10.0 0.00 0.00 0.00 78 1020.1
20180718143722 66 299 1.0 9.0 0.00 0.00 0.00 79 1020.1
20180718143224 65 38 3.0 7.0 0.00 0.00 0.00 80 1020.1
20180718142722 65 350 2.0 9.0 0.00 0.00 0.00 79 1020.1
20180718142222 66 21 3.0 9.0 0.00 0.00 0.00 79 1020.1
20180718141722 65 237 3.0 7.0 0.00 0.00 0.00 78 1020.1
20180718141222 66 11 3.0 7.0 0.00 0.00 0.00 77 1020.1
20180718140723 66 9 3.0 9.0 0.00 0.00 0.00 78 1020.2
20180718140221 67 65 3.0 9.0 0.00 0.00 0.00 77 1020.3
20180718135720 66 268 1.0 5.0 0.00 0.00 0.00 78 1020.2
20180718135221 65 317 1.0 9.0 0.00 0.00 0.00 78 1020.2
20180718134721 65 347 2.0 9.0 0.00 0.00 0.00 79 1020.3
20180718134221 64 38 1.0 7.0 0.00 0.00 0.00 81 1020.4
20180718133720 63 44 3.0 7.0 0.00 0.00 0.00 81 1020.3
20180718133220 63 25 1.0 5.0 0.00 0.00 0.00 81 1020.4
20180718132720 63 31 1.0 9.0 0.00 0.00 0.00 82 1020.4
20180718132221 63 25 2.0 7.0 0.00 0.00 0.00 81 1020.3
20180718131720 63 333 0.0 6.0 0.00 0.00 0.00 80 1020.2
20180718131221 63 324 1.0 6.0 0.00 0.00 0.00 81 1020.2
20180718130718 63 41 2.0 6.0 0.00 0.00 0.00 81 1020.2
20180718130217 63 55 3.0 6.0 0.00 0.00 0.00 80 1020.1